Home > Time Zones > World Clock > Weather > Iran > Bijar > Past weeks

Flag for Iran Weather past 2 weeks in Bijar, Iran

Now
59 °F

Partly sunny.


Feels Like: 58 °F
Forecast: 30 / 65 °F
Wind: 7 mph from Northeast

Location: Sanandaj Airport

Current Time: Apr 1, 2015 at 5:52:24 PM

Latest Report: Apr 1, 2015 at 5:30 PM


Visibility: N/A

Pressure: 29.80 "Hg

Humidity: 34%

Dew point: 30 °F

Location of BijarLocation

Historic Weather in Bijar — Graph

°F

Bijar temperature yesterday

Maximum temperature yesterday: 57 °F (at 3:30 PM)
Minimum temperature yesterday: 41 °F (at 4:23 AM)
Average temperature yesterday: 49 °F

Past Weeks' High & Low Weather Summary

 TemperatureHumidityPressure
High66 °F (Mar 19, 2:30 PM)100% (Mar 23, 8:30 AM)30.30 "Hg (Mar 23, 8:30 AM)
Low27 °F (Mar 19, 6:30 AM)14% (Mar 18, 7:30 PM)29.74 "Hg (Mar 22, 2:30 PM)
Average47 °F62%30.03 "Hg
* Reported Mar 17 3:30 PM — Apr 1 4:30 PM, Bijar, Weather by CustomWeather, © 2015

Note: Actual official high and low records may vary slightly from our data, if they occured in-between our weather recording intervals... More about our weather records

Advertising

Bijar weather history for previous 24 hours

 ConditionsComfort  
Time TempWeatherWind HumidityBarometerVisibility
4:30 PM
Wed, Apr 1
59 °FPartly sunny.2 mph29%29.80 "HgN/A
3:30 PM61 °FPartly sunny.7 mph31%29.83 "HgN/A
2:30 PM57 °FPartly sunny.7 mph36%29.83 "HgN/A
2:00 PM57 °FPartly sunny.7 mph39%29.86 "HgN/A
1:30 PM55 °FPartly sunny.5 mph38%29.86 "HgN/A
1:00 PM55 °FPartly sunny.7 mph44%29.89 "HgN/A
12:30 PM54 °FScattered clouds.7 mph51%29.89 "HgN/A
12:00 PM54 °FScattered clouds.5 mph54%29.89 "HgN/A
11:30 AM50 °FScattered clouds.2 mph58%29.92 "HgN/A
11:00 AM48 °FScattered clouds.2 mph62%29.92 "HgN/A
10:30 AM48 °FScattered clouds.No wind62%29.92 "HgN/A
9:30 AM43 °FSunny.No wind76%29.95 "Hg10 mi
9:00 AM39 °FSunny.No wind87%29.95 "Hg10 mi
8:30 AM34 °FClear.No wind93%29.95 "Hg10 mi
8:00 AM32 °FClear.No wind100%29.95 "Hg10 mi
7:30 AM32 °FPassing clouds.No wind93%29.95 "HgN/A
7:00 AM32 °FPassing clouds.No wind93%29.95 "HgN/A
6:30 AM32 °FClear.No wind93%29.95 "Hg10 mi
6:00 AM32 °FClear.No wind93%29.95 "Hg10 mi
5:30 AM34 °FClear.No wind87%29.95 "Hg10 mi
5:00 AM34 °FClear.2 mph93%29.95 "Hg10 mi
4:24 AM34 °FClear.No wind93%29.95 "Hg10 mi
3:25 AM36 °FClear.2 mph87%29.95 "Hg10 mi
2:23 AM37 °FClear.No wind87%29.95 "Hg10 mi
1:23 AM39 °FClear.2 mph81%29.98 "Hg10 mi
12:22 AM41 °FPassing clouds.No wind81%29.98 "HgN/A
11:24 PM
Tue, Mar 31
43 °FClear.2 mph71%29.98 "Hg10 mi
10:23 PM43 °FPassing clouds.5 mph71%29.95 "HgN/A
9:22 PM48 °FPassing clouds.5 mph58%29.95 "HgN/A
8:23 PM50 °FScattered clouds.5 mph54%29.95 "HgN/A
7:22 PM54 °FPassing clouds.5 mph44%29.92 "HgN/A
6:22 PM54 °FScattered clouds.12 mph44%29.92 "HgN/A
5:22 PM57 °FScattered clouds.14 mph39%29.92 "HgN/A
Weather by CustomWeather, © 2015

See weather overviewHow to use our weather pages